{"data":{"norad_id":57910,"epoch":"2026-09-20T10:02:53.999520Z","epoch_age_seconds":141452,"freshness":"FRESH","line1":"1 57910U 23146V   26263.41868055  .00000349  00000+0  22207-4 0  9996","line2":"2 57910  43.0032 291.4024 0001455 267.2252  92.8433 15.27578975165815","mean_motion":15.27578975,"eccentricity":0.0001455,"inclination_deg":43.0032,"raan_deg":291.4024,"arg_perigee_deg":267.2252,"mean_anomaly_deg":92.8433,"bstar":2.2207e-5,"rev_number":16581,"period_min":94.266811966301,"perigee_km":482.05386223657,"apogee_km":484.05046828366,"semimajor_km":6861.1891652601,"source":"CELESTRAK","updated_at":"2026-09-21T09:00:33.724371Z"}}